SAVONLINNA current weather conditions

sailwx.info

Wind from 140 at 3 knots

Air temperature -1.0° C
Visibility: greater than 2.3 NM
Dewpoint -3.0° C
Present weather: Light snow.

Last reported at 2015-Apr-19 06:20 UTC.
Time now 2015-Apr-19 08:00 UTC

Location: N 61°57' E 028°57'.
View on Google Maps.

See reports from other nearby stations

  
Tides and Currents Weather Stations Pressure Air Temp Water Temp Dewpoint Dewpoint Depression Visibility Wind Speed Wind Dir Waves Ship Positions
date/time (UTC)wind fromknots sea level pressurealtimeterstation pressurevisibilityair tempwater tempwave heightnotes
2015-Apr-19 06:20 140 3 2.3-1.0 Light snow.
2015-Apr-19 05:50 130 3 5.4-1.0
2015-Apr-19 05:20 130 4 5.4-1.0
2015-Apr-19 04:50 130 4 5.4-1.0
2015-Apr-19 04:20 150 2 5.4-1.0
2015-Apr-19 04:00 110 3 5.4-1.0
2015-Apr-19 03:50 100 4 5.4-1.0
2015-Apr-19 03:20 110 3 5.4-1.0
2015-Apr-19 02:50 080 3 5.4-1.0 Light snow showers.
2015-Apr-19 02:20 050 3 5.4-1.0 Light snow.
2015-Apr-19 01:50 070 6 5.4-0.0
2015-Apr-19 01:20 090 4 5.4-0.0
2015-Apr-19 00:50 050 3 5.4 1.0
2015-Apr-19 00:20 050 3 5.4 1.0
2015-Apr-18 23:50 020 2 5.4 1.0
2015-Apr-18 23:20 020 3 5.4 1.0
2015-Apr-18 22:50 050 3 5.4 1.0
2015-Apr-18 22:20 360 3 5.4 2.0
2015-Apr-18 21:50 350 3 5.4 2.0
2015-Apr-18 21:20 330 2 5.4 1.0
2015-Apr-18 20:50 310 3 5.4 1.0
2015-Apr-18 20:20 300 4 5.4 1.0
2015-Apr-18 19:50 290 4 5.4 1.0
2015-Apr-18 19:20 290 3 5.4 1.0
2015-Apr-18 18:50 310 3 2.0
2015-Apr-18 18:20 320 5 2.0
2015-Apr-18 17:50 310 5 5.4 3.0
2015-Apr-18 17:20 300 5 5.4 3.0
2015-Apr-18 16:50 310 5 5.4 4.0
2015-Apr-18 16:20 320 5 5.4 4.0
2015-Apr-18 15:50 320 9 5.4 4.0
2015-Apr-18 15:20 320 8 5.4 4.0
2015-Apr-18 14:50 320 8 5.4 4.0
2015-Apr-18 14:20 320 8 5.4 5.0
2015-Apr-18 13:50 350 9 5.4 4.0
2015-Apr-18 13:20 320 8 5.4 4.0
2015-Apr-18 12:50 310 9 5.4 5.0
2015-Apr-18 12:20 320 10 5.4 5.0
2015-Apr-18 11:50 300 11 5.4 4.0
2015-Apr-18 11:20 300 9 5.4 4.0
2015-Apr-18 10:50 320 9 5.4 5.0
2015-Apr-18 10:20 330 8 5.4 4.0
2015-Apr-18 09:50 320 8 5.4 4.0
2015-Apr-18 09:20 320 7 5.4 5.0
2015-Apr-18 08:50 320 8 5.4 4.0
2015-Apr-18 08:20 320 10 5.4 4.0
2015-Apr-18 07:50 300 8 5.4 3.0
2015-Apr-18 07:20 310 7 5.4 3.0
2015-Apr-18 06:50 300 4 5.4 3.0
2015-Apr-18 06:20 300 5 5.4 2.0
2015-Apr-18 05:50 310 5 2.0
2015-Apr-18 05:20 310 4 1.0
2015-Apr-18 04:50 320 5 -0.0
2015-Apr-18 04:20 330 4 -0.0
2015-Apr-18 03:50 300 4 -1.0
2015-Apr-18 03:20 300 5 -1.0
2015-Apr-18 02:50 300 5 -3.0
2015-Apr-18 02:20 300 5 -3.0
2015-Apr-18 01:50 310 5 -2.0
2015-Apr-18 01:20 300 4 -1.0
2015-Apr-18 00:50 310 5 5.4-1.0
2015-Apr-18 00:20 320 4 5.4-0.0
2015-Apr-17 23:50 320 4 5.4-0.0
2015-Apr-17 23:20 330 4 5.4-0.0
2015-Apr-17 22:50 340 4 5.4 1.0
2015-Apr-17 22:20 340 6 5.4 1.0
2015-Apr-17 21:50 330 6 5.4 2.0
2015-Apr-17 21:20 330 6 5.4 2.0
2015-Apr-17 20:50 330 7 5.4 2.0
2015-Apr-17 20:20 340 7 5.4 2.0
2015-Apr-17 19:50 340 5 5.4 2.0
2015-Apr-17 19:20 320 6 5.4 2.0
2015-Apr-17 18:50 330 8 5.4 2.0
2015-Apr-17 18:20 340 10 5.4 3.0
2015-Apr-17 17:50 340 11 5.4 3.0
2015-Apr-17 17:20 340 9 5.4 4.0
2015-Apr-17 16:50 340 9 5.4 4.0
2015-Apr-17 16:20 340 10 5.4 4.0
2015-Apr-17 15:50 350 10 5.4 4.0
2015-Apr-17 15:20 340 11 5.4 6.0
2015-Apr-17 14:50 350 6 5.4 6.0
2015-Apr-17 14:20 340 9 5.4 6.0
2015-Apr-17 13:50 350 9 5.4 6.0
2015-Apr-17 13:20 350 8 6.0
2015-Apr-17 12:50 360 10 5.4 6.0
2015-Apr-17 12:20 360 10 5.4 6.0
2015-Apr-17 11:50 360 9 5.4 6.0
2015-Apr-17 11:20 360 7 5.4 6.0 Light rain showers.
2015-Apr-17 10:50 010 8 5.4 4.0 Light rain showers.
2015-Apr-17 10:40 360 8 5.4 5.0 Light rain showers.
2015-Apr-17 10:20 010 7 5.4 5.0
2015-Apr-17 09:50 020 10 5.4 5.0
2015-Apr-17 09:20 020 8 5.4 5.0
2015-Apr-17 08:50 360 10 5.4 4.0
2015-Apr-17 08:20 010 9 5.4 4.0